Location: Crymmych
(51.9736°N, 4.6472°W)
Time: 06:26:21
(UTC+00:00)

Daily predictions for brighter satellites

Satellite Brightness Start Highest point End
(mag) Time Altitude Azimuth Time Altitude Azimuth Time Altitude Azimuth
MetOp-A 4.3 20:07:15 10° SSE 20:12:37 87° WSW 20:18:01 10° NNW
Meteor 1-4 Rocket 2.4 20:12:42 10° NNW 20:16:11 87° ENE 20:19:38 10° SSE
Cosmos 2322 Rocket 2.9 20:11:52 10° NNW 20:17:19 43° NE 20:22:44 10° ESE
COSMOS 2406 3.9 20:12:36 10° SW 20:18:17 62° NW 20:23:59 10° NNE
Cosmos 2278 4.3 20:13:05 10° NW 20:18:43 60° WSW 20:24:18 10° SSE
Cosmos 1862 Rocket 3.7 20:15:29 10° N 20:19:56 61° ENE 20:24:18 10° SSE
ERS-1 Rocket 4.5 20:17:10 10° ESE 20:20:57 22° ENE 20:24:45 10° N
H-2A R/B 3.8 20:16:38 10° SSW 20:21:08 32° W 20:25:35 10° NNW
Cosmos 841 Rocket 4.5 20:20:08 10° NNW 20:24:55 34° NE 20:29:41 10° ESE
Cosmos 2360 Rocket 3.3 20:21:13 10° NNW 20:26:18 32° NE 20:31:21 10° ESE
USA 276 2.6 20:24:03 10° W 20:27:08 47° SSW 20:30:10 10° ESE
Cosmos 676 Rocket 4.1 20:21:57 10° S 20:27:12 62° ESE 20:32:29 10° NNE
X-37B 2.3 20:25:22 10° WSW 20:27:50 21° S 20:30:18 10° SE
SPOT 1/Viking Rocket 4.5 20:24:03 10° SE 20:28:43 34° ENE 20:33:24 10° N
USA 32 4.4 20:24:38 10° SSE 20:29:33 44° E 20:34:31 10° NNE
Terra 3.6 20:28:47 10° E 20:31:53 17° NE 20:34:58 10° NNE
ATLAS 3B R/B 3.9 20:28:29 10° SE 20:32:25 17° ESE 20:36:23 10° ENE
Cosmos 1238 Rocket 3.2 20:31:07 10° SSE 20:33:40 27° E 20:36:20 10° NNE
IGS 5A 4.2 20:29:53 10° SE 20:33:41 36° ENE 20:37:31 10° N
Cosmos 468 Rocket 4.1 20:28:50 10° NNW 20:34:10 71° ENE 20:39:25 10° SSE
CZ-2C R/B 3.7 20:30:41 10° NNE 20:35:14 60° ESE 20:39:40 10° S
Cosmos 1980 Rocket 3.0 20:29:57 10° NW 20:35:26 50° WSW 20:40:51 10° S
Cosmos 44 3.5 20:30:51 10° NW 20:35:42 67° NE 20:40:36 11° SE
USA 234 3.6 20:30:23 10° E 20:36:51 66° NNE 20:43:20 10° WNW
Lacrosse 5 2.2 20:31:57 10° WNW 20:36:57 58° SW 20:41:50 10° SE
Cosmos 1934 Rocket 4.0 20:31:39 10° S 20:37:59 75° E 20:44:21 10° NNE
Resurs 01 Rocket 1.6 20:36:09 10° SSE 20:40:35 85° ENE 20:45:03 10° NNW
Cosmos 1602 4.5 20:38:37 10° SSE 20:42:11 34° E 20:45:46 10° NNE
GP-B 3.3 20:39:01 10° N 20:43:23 53° E 20:47:44 10° SSE
Cosmos 1833 Rocket 3.6 20:41:28 10° SW 20:46:58 54° NW 20:52:31 10° NNE
SPOT 3 Rocket 4.0 20:43:27 10° S 20:48:37 65° WSW 20:53:48 10° NNW
Cosmos 1933 Rocket 3.9 20:44:26 10° SSE 20:48:39 45° E 20:52:55 10° NNE
Cosmos 1666 Rocket 4.0 20:44:49 10° SSW 20:49:07 66° WNW 20:53:29 10° N
Cosmos 1867 3.7 20:45:57 10° SW 20:51:23 82° NW 20:56:54 10° NE
COSMOS 2428 4.4 20:47:54 10° NNW 20:52:27 23° NE 20:56:59 10° E
DMSP B5D2-2 4.5 20:48:29 10° N 20:53:42 68° WNW 20:58:54 10° SSW
Cosmos 405 Rocket 2.8 20:51:18 10° S 20:54:53 51° E 20:58:36 10° NNE
Cosmos 1954 Rocket 4.1 20:49:59 10° SSW 20:55:20 86° WNW 21:00:42 10° NNE
Spot 2 Rocket 3.6 20:51:17 11° SSE 20:56:07 62° ENE 21:01:09 10° N
Cosmos 2237 Rocket 4.4 20:52:57 10° NNW 20:56:15 15° NNE 20:59:32 10° ENE
USA 238 DEB 3.6 20:49:42 10° SSW 20:56:19 74° SE 21:03:16 10° NE
USA 238 3.6 20:49:48 10° SSW 20:56:25 73° SE 21:03:22 10° NE
Cosmos 1515 4.0 20:52:57 10° N 20:56:42 49° ENE 20:59:36 15° SSE
Meteor 1-20 Rocket 4.3 20:51:48 10° S 20:57:36 72° E 21:03:27 10° NNE
Okean 1-7 3.3 20:54:18 10° N 20:58:31 50° ENE 21:01:51 15° SSE
CENTAUR R/B 2.7 20:53:51 10° SSW 20:59:39 53° ESE 21:06:33 10° NE
Cosmos 1741 Rocket 4.2 20:58:16 10° S 21:03:17 49° ESE 21:08:24 10° NNE
Cosmos 1437 Rocket 2.7 21:00:39 10° N 21:04:26 65° ENE 21:07:19 16° SSE
FALCON 9 DEB 3.2 21:02:18 10° W 21:05:48 79° N 21:09:19 10° E
OBJECT-B 3.0 21:05:13 10° SSW 21:08:00 25° W 21:10:50 10° NW
Cosmos 1763 Rocket 3.7 21:03:06 10° NNW 21:08:27 75° WSW 21:13:14 13° SSE
Cosmos 1703 Rocket 3.5 21:04:31 10° N 21:08:53 69° ENE 21:12:20 16° SSE
H-2A R/B 3.5 21:05:56 10° NNE 21:10:02 60° ESE 21:14:08 10° S
Cosmos 2333 Rocket 3.5 21:05:39 10° NNW 21:10:48 31° NE 21:15:19 12° E
Cosmos 1570 Rocket 4.1 21:05:34 10° NNW 21:10:54 70° ENE 21:14:58 18° SE
ATLAS 5 CENTAUR R/B 2.2 21:09:20 10° NW 21:11:33 43° NE 21:14:58 15° ESE
Cosmos 1184 Rocket 3.9 21:09:27 10° SSW 21:12:38 45° WNW 21:15:51 10° N
Cosmos 2084 Rocket 3.5 21:09:35 10° SSW 21:13:40 52° SE 21:17:52 10° NE
FAST 4.5 21:11:40 10° N 21:14:17 62° E 21:15:48 24° SSE
Cosmos 1633 Rocket 4.3 21:11:47 10° SSW 21:16:01 45° WNW 21:20:17 10° N
Cosmos 921 Rocket 4.4 21:13:34 10° NW 21:17:21 33° WSW 21:21:06 10° SSW
Landsat 7 3.8 21:15:20 14° SSE 21:19:27 87° WSW 21:24:16 10° NNW
SPOT 5 3.1 21:17:39 20° SE 21:20:20 47° ENE 21:24:39 10° N
Cosmos 2208 Rocket 4.0 21:17:09 10° NNW 21:22:26 72° ENE 21:25:58 21° SE
ERBS 3.4 21:24:34 10° WNW 21:27:44 39° NNE 21:30:13 14° E
Okean 1 3.9 21:24:18 10° NNW 21:28:17 56° W 21:31:49 13° S
Meteor 1-19 Rocket 4.4 21:27:05 10° NNW 21:32:29 68° W 21:37:21 13° S
CZ-2C R/B 4.4 21:29:07 10° N 21:33:43 33° WNW 21:38:20 10° SW
Lacrosse 4 Rocket 2.8 21:37:38 21° ESE 21:37:38 21° ESE 21:40:24 10° ENE
Cosmos 1605 Rocket 4.3 21:32:27 10° SSW 21:38:31 65° WNW 21:44:36 10° N
Cosmos 2219 Rocket 3.0 21:35:26 10° NNW 21:40:49 41° NE 21:44:23 20° ESE
Meteor 2-4 Rocket 3.6 21:35:14 10° NNW 21:40:53 90° W 21:44:40 21° S
SL-4 R/B 1.7 21:37:02 10° W 21:40:57 86° S 21:42:58 25° E
SL-27 R/B 2.2 21:37:56 12° SSW 21:40:58 90° ESE 21:44:18 10° NNE
Cosmos 540 Rocket 3.5 21:35:59 10° NNW 21:41:11 76° WSW 21:44:27 23° SSE
Cosmos 2100 Rocket 4.0 21:36:57 16° S 21:41:48 62° E 21:47:52 10° NNE
USA 267 3.5 21:36:15 10° ENE 21:42:29 45° SE 21:48:41 10° SSW
SL-16 R/B 2.9 21:38:44 10° NW 21:44:10 48° WSW 21:48:20 17° S
Cosmos 2173 Rocket 4.0 21:41:11 18° S 21:45:46 62° E 21:51:48 10° NNE
NOSS 3-2 (A) 3.9 21:40:39 10° WSW 21:46:32 66° NW 21:53:24 10° NE
Cosmos 1242 Rocket 3.5 21:46:42 10° N 21:50:03 33° ENE 21:50:53 29° E
SAR-Lupe-2 3.7 21:49:37 10° NNE 21:53:10 53° ESE 21:54:05 40° SSE
Cosmos 2322 3.9 21:48:44 10° NNW 21:54:24 63° NE 21:57:25 28° SE
Cosmos 2082 Rocket 4.1 21:50:57 10° WSW 21:56:03 33° NW 22:01:09 10° NNE
NOSS 3-2 (C) 3.6 21:51:14 10° SW 21:57:08 79° NW 22:04:00 10° NE
Cosmos 1725 Rocket 4.4 21:55:18 26° SSE 21:58:27 46° E 22:04:27 10° NNE
Cosmos 1459 Rocket 4.0 21:53:46 18° S 21:58:39 76° E 22:05:02 10° NNE
ERS-1 Rocket 3.1 21:56:15 24° S 21:59:17 72° WSW 22:04:20 10° NNW
Cosmos 2346 Rocket 4.4 21:54:09 10° N 22:00:13 71° ENE 22:03:31 28° SSE
Meteor 1-13 Rocket 4.1 21:54:51 10° NNW 22:00:25 83° ENE 22:03:23 29° SSE
Cosmos 2322 Rocket 3.0 21:56:02 10° NW 22:01:24 44° WSW 22:05:04 19° S
Cosmos 1500 3.1 22:00:28 29° SSW 22:02:16 83° W 22:06:04 10° N
USA 276 4.2 22:00:49 10° WSW 22:02:32 17° SW 22:02:32 17° SW
Cosmos 1536 3.3 22:03:04 37° ESE 22:03:36 39° E 22:07:20 10° NNE
Cosmos 2221 Rocket 3.5 21:59:18 10° N 22:03:49 78° E 22:05:36 36° SSE
Cosmos 2016 Rocket 4.1 22:02:20 25° SSE 22:06:02 62° E 22:12:20 10° NNE
Okean 3 3.5 22:02:32 10° NNW 22:06:52 81° W 22:08:39 35° S
Cosmos 841 Rocket 4.2 22:01:57 10° NW 22:06:59 47° WSW 22:10:01 22° S
SPOT 1/Viking Rocket 4.4 22:04:10 16° SSW 22:08:02 44° W 22:13:03 10° NNW
Terra 1.8 22:06:50 33° SSE 22:09:01 87° WSW 22:13:49 10° NNW
Cosmos 2333 4.2 22:03:30 10° NNW 22:09:21 78° ENE 22:12:06 32° SE
Cosmos 2360 Rocket 2.4 22:05:06 10° NW 22:10:43 64° WSW 22:13:33 29° S
COSMOS 2487 3.2 22:12:28 37° E 22:12:28 37° E 22:15:10 10° NE
SL-16 R/B 4.4 22:08:09 10° NNW 22:12:02 18° NNE 22:15:55 10° ENE
Cosmos 1666 2.7 22:12:27 52° SE 22:13:01 60° E 22:16:45 10° NNE
Resurs 01 Rocket 4.3 22:15:26 10° WSW 22:17:42 14° W 22:19:59 10° NW
Lacrosse 5 4.0 22:16:17 10° W 22:19:01 15° WSW 22:21:01 12° SSW
CARTOSAT-1 4.4 22:17:38 24° SSW 22:19:47 43° W 22:23:57 10° NNW
USA 234 3.3 22:16:20 29° SE 22:19:53 71° SSW 22:26:27 10° WNW
Iridium 4 Rocket 2.9 22:18:30 37° S 22:20:07 82° W 22:24:18 10° N
Cosmos 1378 3.8 22:17:22 10° N 22:20:56 40° ENE 22:21:16 39° E
MOS 1-B Rocket 4.4 22:16:27 10° NNE 22:21:42 39° E 22:23:10 33° SE
ATLAS 3B R/B 2.5 22:15:24 10° SSW 22:21:57 69° SE 22:28:34 10° NE
Cosmos 2297 Rocket 4.3 22:32:12 10° E 22:32:12 10° E 22:32:43 10° E
Thor Agena Rocket 4.4 22:30:07 10° NE 22:34:36 30° E 22:35:03 30° ESE
Cosmos 1743 3.7 22:35:21 34° E 22:35:21 34° E 22:38:37 10° NNE
Cosmos 2233 Rocket 4.2 22:34:08 36° SSE 22:36:33 57° E 22:42:43 10° NNE
COSMOS 2428 2.7 22:31:51 10° NNW 22:37:39 80° ENE 22:39:48 40° SE
Cosmos 2061 Rocket 4.0 22:35:41 27° SSW 22:39:21 83° WNW 22:45:35 10° N
Cosmos 44 Rocket 3.3 22:36:33 10° NW 22:41:33 83° SW 22:42:56 49° SSE
Cosmos 2237 Rocket 3.0 22:36:31 10° NNW 22:41:55 42° NE 22:44:34 26° ESE
FALCON 9 DEB 3.1 22:39:26 10° WNW 22:42:51 82° NW 22:42:51 82° NW
Cosmos 1802 Rocket 4.3 22:39:45 20° SSW 22:44:17 68° WNW 22:50:36 10° N
Cosmos 1271 Rocket 2.7 22:40:33 10° N 22:44:21 65° ENE 22:44:31 64° E
NOSS 0 Rocket 4.1 22:42:57 10° NNW 22:49:12 67° NE 22:51:50 36° SE
Cosmos 1674 Rocket 3.5 22:45:52 10° NNW 22:50:13 78° W 22:51:00 58° SSW
CENTAUR R/B 3.4 22:44:11 10° WSW 22:50:25 54° NNW 22:57:51 10° NE
Cosmos 2333 Rocket 2.3 22:49:48 10° NW 22:55:33 68° WSW 22:57:19 44° S
SPOT 5 4.4 22:56:53 18° SW 22:58:43 23° W 23:02:18 10° NW
Cosmos 1503 Rocket 4.3 22:58:15 46° SE 22:58:52 48° ESE 23:04:01 10° NE
Geosat 4.0 22:58:12 47° SE 22:59:37 74° NE 23:04:40 10° NNW
Cosmos 1486 Rocket 3.9 23:02:24 47° SSW 23:03:58 84° ESE 23:09:12 10° NNE
ERBS 3.4 23:00:53 10° WNW 23:03:07 38° WNW 23:03:07 38° WNW
Cosmos 1733 Rocket 3.5 23:06:45 41° SW 23:07:58 57° WNW 23:12:22 10° N
CRYOSAT 2 4.4 23:03:18 10° N 23:08:13 75° W 23:09:29 49° SSW
Meteor 2-11 Rocket 4.4 23:06:27 46° SSE 23:08:15 68° E 23:14:20 10° NNE
DNEPR-1 R/B 4.4 23:06:34 10° NW 23:12:44 62° NE 23:14:43 37° ESE
Lacrosse 4 Rocket 1.9 23:13:52 33° WSW 23:15:32 58° NW 23:19:40 10° NNE
Cosmos 773 Rocket 4.1 23:11:22 10° NNW 23:16:30 65° ENE 23:17:38 50° ESE
ALOS 2 2.7 23:17:00 57° E 23:17:25 60° ENE 23:21:46 10° N
Cosmos 968 Rocket 3.4 23:17:23 50° SSW 23:18:46 86° WNW 23:23:58 10° NNE
Helios 1A 4.4 23:18:09 27° E 23:18:49 28° ENE 23:22:26 10° N
SL-4 R/B 3.4 23:16:48 10° W 23:18:33 24° W 23:18:33 24° W
Cosmos 2227 Rocket 3.6 23:22:00 22° E 23:22:00 22° E 23:26:00 10° NE
Cosmos 1707 4.0 23:18:17 10° N 23:21:46 30° ENE 23:21:46 30° ENE
Cosmos 1242 Rocket 4.4 23:21:52 10° NW 23:24:46 22° W 23:24:54 22° W
Cosmos 2219 Rocket 2.7 23:19:27 10° NW 23:24:54 47° WSW 23:26:05 41° SW
USA 267 3.3 23:19:18 10° ENE 23:25:53 83° NNW 23:32:26 10° WSW
EO 1 Del DPAF 3.6 23:25:02 10° NNE 23:28:12 55° NE 23:28:12 55° NE
Cosmos 1538 Rocket 4.2 23:29:18 10° NNW 23:34:26 60° ENE 23:35:35 48° ESE
Cosmos 1782 Rocket 3.6 23:35:17 66° E 23:35:17 66° E 23:39:28 10° NNE
Cosmos 1842 3.4 23:33:32 10° NNW 23:37:09 70° NW 23:37:09 70° NW
Spot 4 4.2 23:37:26 48° SW 23:38:04 52° W 23:42:48 10° NNW
Cosmos 1908 Rocket 3.7 23:41:58 60° WSW 23:42:19 63° WNW 23:46:39 10° N
Cosmos 1607 4.1 23:38:10 10° NW 23:44:38 73° NE 23:47:26 36° ESE
Terra 4.1 23:45:43 11° WSW 23:47:30 14° W 23:49:51 10° NW
Cosmos 2360 Rocket 4.4 23:51:41 10° WNW 23:53:35 12° W 23:55:19 10° WSW
